Location: Newark
(47.5833°N, 8.1500°E)
Time: 08:35:25
(UTC+00:00)

Tiros 1 despin weight - Pass Details

Date: 04 November 2020
Orbit: 593 x 642 km, 48.2° (Epoch: 28 November)

Event Time Altitude Azimuth Distance (km) Brightness Sun altitude
Rises 19:35:37 0° 190° (S) 2,897 - -35.6°
Reaches altitude 10° 19:39:07 10° 163° (SSE) 1,984 - -36.2°
Maximum altitude 19:41:10 13° 136° (SE) 1,790 - -36.5°
Drops below altitude 10° 19:43:13 10° 109° (ESE) 1,975 - -36.9°
Sets 19:46:41 0° 81° (E) 2,872 - -37.4°
